Weather in Chatelet

Belgium     50°24′24″N   4°31′10″E
temp.,
°C
wind,
m/s
gust,
m/s
humid.,
%
clouds,
%
prec.,
mm/h
press.,
hPa
HPBL,
m
30 june, thu
thu3023:00+18ssw33565 0.0 101233
02:00+15wsw227234 0.0 101220
05:00+12w34946 0.0 101281
08:00+16w23825 0.0 1012251
11:00+20w556795 0.0 10131156
14:00+17w6568100 0.1 1013747
17:00+12w4796100 4.2 1014387
20:00+12wsw3795100 7.6 1015504
1 july, fri
fri123:00+11s3697100 0.1 1017150
02:00+11ssw4119750 0.1 1016322
05:00+10ssw4109723 0.0 1017283
08:00+12sw48905 0.0 1018341
11:00+17sw57603 0.0 10191379
14:00+18sw5755100 0.1 10191694
17:00+17wsw5764100 0.1 1020957
20:00+18sw256175 0.1 1021832
2 july, sat
sat223:00+13sw22760 0.0 102218
02:00+11s22800 0.0 102227
05:00+10s33814 0.0 102237
08:00+15s36665 0.0 1022194
11:00+21ssw45430 0.0 10221327
14:00+24ssw343750 0.0 10211983
17:00+25sw353482 0.0 10192229
20:00+22wsw3652100 0.0 1019283
3 july, sun
sun323:00+17sw22600 0.0 101920
02:00+13nw22840 0.0 102029
05:00+12wsw228441 0.0 102014
08:00+15wsw24703 0.0 1021219
11:00+20w45560 0.0 1020941
14:00+23w57431 0.0 10201767
17:00+24w46392 0.0 10202006
20:00+21wnw46505 0.0 1020732
4 july, mon
mon423:00+14nne22661 0.0 102117
02:00+12se117648 0.0 102213
05:00+11s11780 0.0 102210
08:00+15se12640 0.0 1022149
11:00+21se22463 0.0 10211133
14:00+24w23340 0.0 10191746
17:00+25wnw3432100 0.0 10181994
20:00+23nw234782 0.0 1018192